Date String (YYYY-MM-DD hh:mm:ss) UTC,Instrument flags,absolute air pressure of the measurement (hPa),sample flow rate (lpm),inlet stack bypass flow (lpm),air temperature of the measurement (°C),ambient temperature measured by the external sensor (°C),aerosol sample conditioner tube jacket temperature (°C),OPC LED temperature (°C),internal box temperature (°C),relative humidity of the measurement (%),span deviation,mass concentration of particles derived from Lorenz-Mie calculation of OPC scattering (μg/m³),mass concentration of particles derived from Lorenz-Mie calculation of OPC scattering (μg/m³),mass concentration of particles derived from Lorenz-Mie calculation of OPC scattering (μg/m³)
DateTimeUTC,F1_M11,P_M11,Q1_M11,Q2_M11,T1_M11,T2_M11,T3_M11,T4_M11,T5_M11,U1_M11,ZSPAN_M11,X2_M11,X0_M11,X1_M11
2024-05-11 03:00:00,SystemResetWarning,0833.4,5.00,000.00,024.8,023.8,000.0,033.2,026.5,022.7,0000.0,0003.87,0007.32,0003.63
2024-05-11 03:01:00,SystemResetWarning,0833.4,5.01,000.00,024.8,024.0,000.0,033.2,026.6,022.6,0000.0,0003.89,0007.38,0003.64
2024-05-11 03:02:00,SystemResetWarning,0833.4,5.00,000.00,024.8,024.1,000.0,033.2,026.6,022.4,0000.0,0003.90,0007.40,0003.66
2024-05-11 03:03:00,SystemResetWarning,0833.4,5.00,000.00,024.9,024.2,000.0,033.2,026.7,022.2,0000.0,0003.94,0007.43,0003.70
2024-05-11 03:04:00,SystemResetWarning,0833.4,5.01,000.00,024.9,024.3,000.0,033.2,026.7,022.3,0000.0,0003.99,0007.52,0003.74
2024-05-11 03:05:00,SystemResetWarning,0833.4,5.01,000.00,025.0,024.4,000.0,033.2,026.8,022.2,0000.0,0004.04,0007.52,0003.78
2024-05-11 03:06:00,SystemResetWarning,0833.4,5.00,000.00,025.0,024.5,000.0,033.2,026.8,022.3,0000.0,0004.10,0007.36,0003.81
2024-05-11 03:07:00,SystemResetWarning,0833.4,4.99,000.00,025.0,024.5,000.0,033.2,026.9,022.2,0000.0,0004.13,0007.34,0003.82
2024-05-11 03:08:00,SystemResetWarning,0833.4,5.00,000.00,025.1,024.6,000.0,033.2,026.9,021.9,0000.0,0004.15,0007.40,0003.82
2024-05-11 03:09:00,SystemResetWarning,0833.4,5.00,000.00,025.1,024.6,000.0,033.2,027.0,021.8,0000.0,0004.19,0007.38,0003.85
2024-05-11 03:10:00,SystemResetWarning,0833.4,5.00,000.00,025.1,024.7,000.0,033.3,027.0,021.8,0000.0,0004.22,0007.39,0003.88
2024-05-11 03:11:00,SystemResetWarning,0833.4,5.00,000.00,025.2,024.7,000.0,033.3,027.0,021.8,0000.0,0004.27,0007.42,0003.92
2024-05-11 03:12:00,SystemResetWarning,0833.4,5.00,000.00,025.2,024.8,000.0,033.3,027.0,021.7,0000.0,0004.30,0007.49,0003.94
2024-05-11 03:13:00,SystemResetWarning,0833.4,5.00,000.00,025.2,024.8,000.0,033.3,027.1,021.6,0000.0,0004.34,0007.51,0003.98
2024-05-11 03:14:00,SystemResetWarning,0833.4,5.00,000.00,025.3,024.8,000.0,033.4,027.1,021.6,0000.0,0004.36,0007.59,0003.99
2024-05-11 03:15:00,SystemResetWarning,0833.4,5.01,000.00,025.3,024.9,000.0,033.4,027.1,021.7,0000.0,0004.36,0007.64,0004.00
2024-05-11 03:16:00,SystemResetWarning,0833.4,5.00,000.00,025.3,024.9,000.0,033.4,027.2,021.5,0000.0,0004.35,0007.58,0004.00
2024-05-11 03:17:00,SystemResetWarning,0833.5,4.99,000.00,025.4,024.9,000.0,033.4,027.2,021.5,0000.0,0004.38,0007.54,0004.00
2024-05-11 03:18:00,SystemResetWarning,0833.4,4.99,000.00,025.4,024.9,000.0,033.5,027.2,021.6,0000.0,0004.39,0007.33,0004.01
2024-05-11 03:19:00,SystemResetWarning,0833.4,5.00,000.00,025.4,025.0,000.0,033.5,027.2,021.6,0000.0,0004.40,0007.61,0004.01
2024-05-11 03:20:00,SystemResetWarning,0833.4,5.00,000.00,025.4,025.0,000.0,033.5,027.3,021.6,0000.0,0004.42,0008.37,0004.00
2024-05-11 03:21:00,SystemResetWarning,0833.4,5.00,000.00,025.5,025.0,000.0,033.5,027.3,021.4,0000.0,0004.45,0008.76,0003.98
2024-05-11 03:22:00,SystemResetWarning,0833.4,5.00,000.00,025.5,025.0,000.0,033.6,027.3,021.5,0000.0,0004.43,0008.79,0003.96
2024-05-11 03:23:00,SystemResetWarning,0833.5,4.99,000.00,025.5,025.0,000.0,033.6,027.3,021.4,0000.0,0004.39,0008.99,0003.93
2024-05-11 03:24:00,SystemResetWarning,0833.4,4.99,000.00,025.5,025.0,000.0,033.6,027.3,021.4,0000.0,0004.39,0009.34,0003.91
2024-05-11 03:25:00,SystemResetWarning,0833.5,5.00,000.00,025.5,025.1,000.0,033.6,027.3,021.4,0000.0,0004.35,0009.53,0003.87
2024-05-11 03:26:00,SystemResetWarning,0833.5,5.01,000.00,025.6,025.1,000.0,033.7,027.4,021.3,0000.0,0004.29,0010.14,0003.82
2024-05-11 03:27:00,SystemResetWarning,0833.5,5.00,000.00,025.6,025.1,000.0,033.7,027.4,021.3,0000.0,0004.26,0010.59,0003.79
2024-05-11 03:28:00,SystemResetWarning,0833.5,5.01,000.00,025.6,025.1,000.0,033.7,027.4,021.3,0000.0,0004.22,0010.51,0003.76
2024-05-11 03:29:00,SystemResetWarning,0833.5,5.00,000.00,025.6,025.1,000.0,033.7,027.4,021.3,0000.0,0004.17,0010.41,0003.74
2024-05-11 03:30:00,SystemResetWarning,0833.5,4.99,000.00,025.6,025.1,000.0,033.8,027.4,021.2,0000.0,0004.14,0010.23,0003.72
2024-05-11 03:31:00,SystemResetWarning,0833.5,5.00,000.00,025.6,025.1,000.0,033.8,027.4,021.2,0000.0,0004.08,0009.33,0003.71
2024-05-11 03:32:00,SystemResetWarning,0833.5,5.01,000.00,025.6,025.1,000.0,033.8,027.4,021.1,0000.0,0004.03,0009.18,0003.71
2024-05-11 03:33:00,SystemResetWarning,0833.5,5.00,000.00,025.7,025.1,000.0,033.8,027.5,021.1,0000.0,0003.99,0009.30,0003.68
2024-05-11 03:34:00,SystemResetWarning,0833.4,5.00,000.00,025.7,025.2,000.0,033.8,027.5,021.1,0000.0,0003.97,0009.13,0003.68
2024-05-11 03:35:00,SystemResetWarning,0833.4,5.00,000.00,025.7,025.2,000.0,033.8,027.5,021.0,0000.0,0003.97,0008.72,0003.68
2024-05-11 03:36:00,SystemResetWarning,0833.4,5.00,000.00,025.7,025.2,000.0,033.8,027.5,021.0,0000.0,0003.96,0008.39,0003.68
2024-05-11 03:37:00,SystemResetWarning,0833.4,5.00,000.00,025.7,025.2,000.0,033.9,027.5,021.0,0000.0,0003.95,0008.15,0003.67
2024-05-11 03:38:00,SystemResetWarning,0833.4,5.00,000.00,025.7,025.2,000.0,033.9,027.5,021.0,0000.0,0003.95,0007.16,0003.66
2024-05-11 03:39:00,SystemResetWarning,0833.4,5.00,000.00,025.7,025.2,000.0,033.9,027.5,020.9,0000.0,0003.93,0007.33,0003.65
2024-05-11 03:40:00,SystemResetWarning,0833.4,5.00,000.00,025.7,025.2,000.0,033.9,027.5,020.9,0000.0,0003.87,0007.18,0003.63
2024-05-11 03:41:00,SystemResetWarning,0833.4,5.00,000.00,025.8,025.2,000.0,033.9,027.5,020.9,0000.0,0003.86,0007.15,0003.63
2024-05-11 03:42:00,SystemResetWarning,0833.4,5.00,000.00,025.8,025.2,000.0,033.9,027.5,020.8,0000.0,0003.85,0007.35,0003.62
2024-05-11 03:43:00,SystemResetWarning,0833.4,5.00,000.00,025.8,025.2,000.0,034.0,027.5,020.8,0000.0,0003.84,0007.26,0003.60
2024-05-11 03:44:00,SystemResetWarning,0833.4,5.00,000.00,025.8,025.2,000.0,034.0,027.5,020.8,0000.0,0003.84,0006.83,0003.59
2024-05-11 03:45:00,SystemResetWarning,0833.4,5.00,000.00,025.8,025.2,000.0,034.0,027.5,020.7,0000.0,0003.86,0006.90,0003.58
2024-05-11 03:46:00,SystemResetWarning,0833.4,5.00,000.00,025.8,025.2,000.0,034.0,027.6,020.7,0000.0,0003.83,0006.82,0003.55
2024-05-11 03:47:00,SystemResetWarning,0833.3,5.00,000.00,025.8,025.2,000.0,034.0,027.6,020.6,0000.0,0003.82,0006.76,0003.54
2024-05-11 03:48:00,SystemResetWarning,0833.4,5.00,000.00,025.8,025.2,000.0,034.0,027.6,020.6,0000.0,0003.81,0006.70,0003.54
2024-05-11 03:49:00,SystemResetWarning,0833.3,5.00,000.00,025.8,025.2,000.0,034.0,027.6,020.6,0000.0,0003.81,0006.48,0003.53
2024-05-11 03:50:00,SystemResetWarning,0833.4,5.00,000.00,025.8,025.3,000.0,034.0,027.6,020.6,0000.0,0003.81,0006.22,0003.53
2024-05-11 03:51:00,SystemResetWarning,0833.3,5.00,000.00,025.8,025.3,000.0,034.0,027.6,020.6,0000.0,0003.83,0006.31,0003.53
2024-05-11 03:52:00,SystemResetWarning,0833.3,5.01,000.00,025.8,025.3,000.0,034.0,027.6,020.6,0000.0,0003.84,0006.34,0003.53
2024-05-11 03:53:00,SystemResetWarning,0833.4,5.00,000.00,025.9,025.3,000.0,034.0,027.6,020.6,0000.0,0003.83,0005.98,0003.52
2024-05-11 03:54:00,SystemResetWarning,0833.3,5.00,000.00,025.9,025.3,000.0,034.0,027.6,020.6,0000.0,0003.83,0005.62,0003.53
2024-05-11 03:55:00,SystemResetWarning,0833.3,5.01,000.00,025.9,025.3,000.0,034.1,027.6,020.6,0000.0,0003.83,0005.86,0003.54
2024-05-11 03:56:00,SystemResetWarning,0833.3,5.01,000.00,025.9,025.3,000.0,034.1,027.6,020.5,0000.0,0003.82,0005.93,0003.54
2024-05-11 03:57:00,SystemResetWarning,0833.2,4.99,000.00,025.9,025.3,000.0,034.1,027.6,020.5,0000.0,0003.83,0006.04,0003.54
2024-05-11 03:58:00,SystemResetWarning,0833.2,5.00,000.00,025.9,025.3,000.0,034.1,027.6,020.5,0000.0,0003.82,0006.05,0003.54
2024-05-11 03:59:00,SystemResetWarning,0833.2,5.00,000.00,025.9,025.3,000.0,034.1,027.6,020.5,0000.0,0003.82,0006.09,0003.54
